Regional Weather Roundup
Issued by NWS

Home | Current Version | Previous Version | Graphics & Text | Print | Product List | Glossary On
Versions: 1 2 3 4 5 6 7 8 9 10 11 12 13 14 15 16 17 18 19 20 21 22 23 24 25 26 27
000
ASUS45 KBOI 170210
RWRID
WEATHER ROUNDUP FOR IDAHO
NATIONAL WEATHER SERVICE BOISE ID
800 PM MDT WED APR 16 2014

NOTE: "FAIR" INDICATES FEW OR NO CLOUDS BELOW 12000 FEET
WITH NO SIGNIFICANT WEATHER AND/OR OBSTRUCTIONS TO VISIBILITY

IDZ012-014-170300-
SOUTHWEST IDAHO


CITY           SKY/WX    TMP DP  RH WIND       PRES   REMARKS
BOISE          CLEAR     57  20  23 NW9       29.97F
CALDWELL       CLEAR     57  27  30 NE8       29.99S
MOUNTAIN HOME  CLEAR     59  20  22 N9        29.97S
$$

IDZ016-017-170300-
SOUTHCENTRAL IDAHO


CITY           SKY/WX    TMP DP  RH WIND       PRES   REMARKS
BURLEY         CLEAR     52  16  24 W8        29.96F
JEROME         CLEAR     52  18  26 W8        29.98S
TWIN FALLS     CLEAR     54  14  20 NW7       29.98S
$$

IDZ019>023-170300-
SOUTHEAST IDAHO


CITY           SKY/WX    TMP DP  RH WIND       PRES   REMARKS
IDAHO FALLS    PTCLDY    51  14  22 S9        29.97S
POCATELLO      PTCLDY    51  12  21 SW10      29.98S
REXBURG        PTCLDY    48  13  24 S7        29.96S
$$

IDZ006-010-011-018-031-032-170300-
CENTRAL IDAHO MOUNTAINS


CITY           SKY/WX    TMP DP  RH WIND       PRES   REMARKS
MCCALL         CLOUDY    46  20  35 W5        29.98F
HAILEY         PTCLDY    52  16  24 SW9       29.95S
STANLEY          N/A     42  16  34 NW6       30.00R
SALMON         MOCLDY    52  18  25 NW3       29.94S
CHALLIS        PTCLDY    49  15  25 NW13      29.95R
$$

IDZ002-004-006-007-026-170300-
NORTHERN IDAHO


CITY           SKY/WX    TMP DP  RH WIND       PRES   REMARKS
LEWISTON       CLOUDY    57  32  38 SE6       29.98F
LOWELL           N/A     52  43  71 CALM      30.00S
COEUR D`ALENE  CLOUDY    46  41  81 SE6       29.99F
MULLAN PASS    FOG       30  30 100 VRB6      29.96S VSB 1/4 WCI  24
$$



USA.gov is the U.S. government's official web portal to all federal, state and local government web resources and services.